CZ-6A DEB, 55513

Orbit data source: Space-Track

CZ-6A DEB, 55513 is space debris in SSO originally from a launch on Fri, 11 Nov 2022 UTC launched from the Taiyaun Space Center, China (TSC). Debris objects in space refer to the collection of defunct objects orbiting the Earth. Examples of debris include non-operational satellites, rocket bodies, and fragments generated from explosions, collisions, or faulty payload assembly.

Loading next visibility...
Identifier
55513, 2022-151XK
Orbit
SSO
Country
Flag of CNCN / PRC
Related business
Manufacturer
SAST
Mission
Spacecraft
Bus & Motor
Unknown
Mass
Unknown
Launch date (UTC)
2022-11-11 (4 years ago)
Launch vehicle
Unknown
Launch site
Taiyaun Space Center, China (TSC)
Object type
Payload
Rocket body
Debris
Shape & HBR
Unknown shape, 0.1 m
Radar Cross Section
Small (<0.1 m²)

Expand to show TLE details & history
Last TLE update: 2 weeks ago

TLE from 2 weeks ago
0 CZ-6A DEB
1 55513U 22151XK  26225.22143574  .00000082  00000-0  71944-4 0  9994
2 55513  98.8540 220.9427 0052079 185.9010 174.1553 14.08502260189415
Epoch: 2026-08-13T05:18Z
TLE epoch observation values (Epoch: 2026-08-13T05:18:52.047Z)
Latitude
0.00002°
Longitude
179.56171°
Altitude
904.928 km
Speed
7.38 km/s
True Right ascension
14h 43m 46s
True Declination
0° 00' 00"
Sunlit
Object was in daylight at epoch
Visualization orbit readout
Latitude
Unknown
Longitude
Unknown
Altitude
Unknown
Speed
Unknown
Apparent Right ascension
Unknown
Apparent Declination
Unknown
Sunlit
N/A
Visualization observer readout
Local Sidereal Time
12:37:39
Azimuth
Unknown
Elevation
Unknown
Doppler factor
Unknown
Orbital elements
Apogee altitude
899.387 km
Perigee altitude
823.978 km
Semi-major axis
7,239.819 km
Eccentricity
0.00521
Inclination
98.854°
RAAN
220.9427°
Arg. of periapsis
185.901°
True anomaly
174.21568°
Mean anomaly
174.1553°
Eccentric anomaly
174.18553°
Mean motion
3.52332 °/min
Orbital period
102.18 mins
BSTAR
0.000071944
Loading maneuver chart data...
Computing Atmospheric mass density...
Loading historical data...
Loading historical data...
Loading historical data...
Loading historical data...
Loading historical data...
Loading historical data...
Loading historical data...

Documentation

Showing up to 5 results
|